When you browse on this site, cookies collect data to enhance your experience and personalize the content and advertising you see.
Visit our Privacy Policy to learn more. By continuing to use the site, you agree to this use of cookies and data.

Hourly Weather Rio Bueno

Today, 13 July, Monday

Time Temperature Precipitation Wind Pressure Humidity
00:00 +1°C° 0 mm 0 mps 764 mmHg 96%
01:00 +1°C° 0 mm 0 mps 764 mmHg 97%
02:00 0°C° 0 mm 0 mps 765 mmHg 97%
03:00 0°C° 0 mm 0 mps 765 mmHg 97%
04:00 0°C° 0 mm 0 mps 765 mmHg 97%
05:00 0°C° 0 mm 0 mps 765 mmHg 97%
06:00 0°C° 0 mm 0 mps 765 mmHg 97%
07:00 -1°C° 0 mm 0 mps 766 mmHg 97%
08:00 +1°C° 0 mm 0 mps 766 mmHg 92%
09:00 +3°C° 0 mm 0 mps 765 mmHg 87%
10:00 +4°C° 0 mm 0 mps 765 mmHg 82%
11:00 +6°C° 0 mm 0 mps 765 mmHg 76%
12:00 +7°C° 0 mm 0 mps 765 mmHg 71%
13:00 +8°C° 0 mm 0 mps 764 mmHg 65%
14:00 +7°C° 0 mm 0 mps 764 mmHg 69%
15:00 +6°C° 0 mm 0 mps 764 mmHg 73%
16:00 +5°C° 0 mm 0 mps 764 mmHg 77%
17:00 +4°C° 0 mm 0 mps 764 mmHg 82%
18:00 +3°C° 0 mm 0 mps 764 mmHg 87%
19:00 +1°C° 0 mm 0 mps 764 mmHg 92%
20:00 +1°C° 0 mm 0 mps 764 mmHg 92%
21:00 +1°C° 0 mm 0 mps 764 mmHg 93%
22:00 +1°C° 0 mm 0 mps 763 mmHg 93%
23:00 0°C° 0 mm 0 mps 763 mmHg 92%

Tomorrow, 14 July, Tuesday

Time Temperature Precipitation Wind Pressure Humidity
00:00 0°C° 0 mm 0 mps 763 mmHg 91%
01:00 0°C° 0 mm 0 mps 763 mmHg 90%
02:00 0°C° 0 mm 0 mps 762 mmHg 88%
03:00 0°C° 0 mm 0 mps 762 mmHg 87%
04:00 0°C° 0 mm 0 mps 762 mmHg 85%
05:00 +1°C° 0 mm 0 mps 761 mmHg 83%
06:00 +1°C° 0 mm 0 mps 761 mmHg 82%
07:00 +1°C° 0 mm 0 mps 761 mmHg 80%
08:00 +3°C° 0 mm 0 mps 761 mmHg 75%
09:00 +5°C° 0 mm 0 mps 761 mmHg 71%
10:00 +8°C° 0 mm 1 mps 760 mmHg 66%
11:00 +9°C° 0 mm 1 mps 760 mmHg 65%
12:00 +11°C° 0 mm 1 mps 760 mmHg 63%
13:00 +12°C° 0 mm 1 mps 759 mmHg 61%
14:00 +10°C° 0 mm 0 mps 759 mmHg 69%
15:00 +9°C° 0 mm 0 mps 759 mmHg 76%
16:00 +8°C° 0 mm 0 mps 758 mmHg 83%
17:00 +8°C° 0 mm 0 mps 758 mmHg 86%
18:00 +8°C° 0 mm 1 mps 758 mmHg 89%
19:00 +8°C° 0 mm 1 mps 758 mmHg 91%
20:00 +8°C° 0 mm 1 mps 758 mmHg 92%
21:00 +8°C° 0 mm 1 mps 758 mmHg 93%
22:00 +8°C° 0 mm 1 mps 758 mmHg 94%
23:00 +8°C° 0 mm 1 mps 758 mmHg 94%

Day after tomorrow, 15 July, Wednesday

Time Temperature Precipitation Wind Pressure Humidity
00:00 +8°C° 0 mm 1 mps 757 mmHg 94%
01:00 +8°C° 0 mm 1 mps 757 mmHg 95%
02:00 +8°C° 0.1 mm 1 mps 757 mmHg 95%
03:00 +8°C° 0.1 mm 1 mps 757 mmHg 96%
04:00 +7°C° 0.1 mm 0 mps 756 mmHg 96%
05:00 +7°C° 0.9 mm 0 mps 756 mmHg 97%
06:00 +7°C° 0.9 mm 0 mps 756 mmHg 98%
07:00 +7°C° 0.9 mm 0 mps 756 mmHg 99%
08:00 +8°C° 0.2 mm 0 mps 756 mmHg 98%
09:00 +9°C° 0.2 mm 0 mps 756 mmHg 97%
10:00 +10°C° 0.2 mm 1 mps 756 mmHg 96%
11:00 +10°C° 2.8 mm 1 mps 756 mmHg 97%
12:00 +10°C° 2.8 mm 1 mps 756 mmHg 97%
13:00 +10°C° 2.8 mm 1 mps 755 mmHg 98%
14:00 +10°C° 1.4 mm 1 mps 755 mmHg 98%
15:00 +10°C° 1.4 mm 1 mps 755 mmHg 98%
16:00 +10°C° 1.4 mm 1 mps 755 mmHg 97%
17:00 +9°C° 0.7 mm 2 mps 755 mmHg 97%
18:00 +9°C° 0.7 mm 2 mps 756 mmHg 97%
19:00 +9°C° 0.7 mm 2 mps 756 mmHg 97%
20:00 +9°C° 1 mm 2 mps 756 mmHg 97%
21:00 +9°C° 1 mm 2 mps 756 mmHg 96%
22:00 +10°C° 1 mm 2 mps 756 mmHg 96%
23:00 +10°C° 0.1 mm 2 mps 756 mmHg 95%

16 July, Thursday

Time Temperature Precipitation Wind Pressure Humidity
00:00 +9°C° 0.1 mm 2 mps 755 mmHg 95%
01:00 +9°C° 0.1 mm 2 mps 755 mmHg 95%
02:00 +9°C° 0.3 mm 2 mps 755 mmHg 95%
03:00 +9°C° 0.3 mm 2 mps 754 mmHg 95%
04:00 +9°C° 0.3 mm 2 mps 754 mmHg 95%
05:00 +9°C° 1.8 mm 2 mps 754 mmHg 95%
06:00 +10°C° 1.8 mm 3 mps 753 mmHg 95%
07:00 +10°C° 1.8 mm 3 mps 753 mmHg 95%
08:00 +10°C° 2.3 mm 3 mps 752 mmHg 95%
09:00 +10°C° 2.3 mm 3 mps 752 mmHg 95%
10:00 +10°C° 2.3 mm 3 mps 752 mmHg 95%
11:00 +10°C° 1.8 mm 3 mps 751 mmHg 95%
12:00 +10°C° 1.8 mm 3 mps 750 mmHg 95%
13:00 +10°C° 1.8 mm 3 mps 750 mmHg 95%
14:00 +10°C° 4.1 mm 3 mps 750 mmHg 95%
15:00 +10°C° 4.1 mm 3 mps 750 mmHg 96%
16:00 +10°C° 4.1 mm 3 mps 749 mmHg 97%
17:00 +10°C° 0.6 mm 2 mps 750 mmHg 96%
18:00 +10°C° 0.6 mm 2 mps 750 mmHg 96%
19:00 +9°C° 0.6 mm 2 mps 751 mmHg 96%
20:00 +9°C° 0.2 mm 2 mps 751 mmHg 96%
21:00 +9°C° 0.2 mm 2 mps 751 mmHg 96%
22:00 +8°C° 0.2 mm 2 mps 751 mmHg 96%
23:00 +8°C° 0.4 mm 2 mps 751 mmHg 96%

17 July, Friday

Time Temperature Precipitation Wind Pressure Humidity
00:00 +8°C° 0.4 mm 2 mps 751 mmHg 96%
01:00 +9°C° 0.4 mm 2 mps 751 mmHg 95%
02:00 +9°C° 0.5 mm 2 mps 750 mmHg 95%
03:00 +9°C° 0.5 mm 2 mps 750 mmHg 95%
04:00 +8°C° 0.5 mm 2 mps 750 mmHg 95%
05:00 +8°C° 0.5 mm 2 mps 750 mmHg 95%
06:00 +8°C° 0.5 mm 2 mps 750 mmHg 95%
07:00 +8°C° 0.5 mm 2 mps 750 mmHg 95%
08:00 +9°C° 0.7 mm 2 mps 750 mmHg 94%
09:00 +9°C° 0.7 mm 2 mps 751 mmHg 93%
10:00 +9°C° 0.7 mm 3 mps 751 mmHg 93%
11:00 +10°C° 0.6 mm 3 mps 751 mmHg 90%
12:00 +11°C° 0.6 mm 3 mps 751 mmHg 87%
13:00 +11°C° 0.6 mm 3 mps 751 mmHg 84%
14:00 +11°C° 0.5 mm 3 mps 751 mmHg 86%
15:00 +10°C° 0.5 mm 3 mps 751 mmHg 88%
16:00 +9°C° 0.5 mm 2 mps 751 mmHg 90%
17:00 +9°C° 0.3 mm 2 mps 752 mmHg 92%
18:00 +8°C° 0.3 mm 2 mps 752 mmHg 93%
19:00 +8°C° 0.3 mm 2 mps 752 mmHg 95%
20:00 +8°C° 0.3 mm 2 mps 753 mmHg 95%
21:00 +8°C° 0.3 mm 2 mps 753 mmHg 95%
22:00 +8°C° 0.3 mm 3 mps 753 mmHg 95%
23:00 +8°C° 0.3 mm 3 mps 753 mmHg 94%

18 July, Saturday

Time Temperature Precipitation Wind Pressure Humidity
00:00 +8°C° 0.3 mm 3 mps 753 mmHg 94%
01:00 +8°C° 0.3 mm 3 mps 753 mmHg 93%
02:00 +8°C° 0.3 mm 3 mps 754 mmHg 93%
03:00 +8°C° 0.3 mm 3 mps 754 mmHg 93%
04:00 +8°C° 0.3 mm 3 mps 754 mmHg 93%
05:00 +8°C° 0.3 mm 3 mps 754 mmHg 93%
06:00 +8°C° 0.3 mm 3 mps 755 mmHg 93%
07:00 +8°C° 0.3 mm 3 mps 755 mmHg 93%
08:00 +9°C° 0.1 mm 3 mps 756 mmHg 92%
09:00 +9°C° 0.1 mm 3 mps 756 mmHg 90%
10:00 +9°C° 0.1 mm 3 mps 756 mmHg 89%
11:00 +10°C° 0.3 mm 3 mps 756 mmHg 87%
12:00 +10°C° 0.3 mm 3 mps 756 mmHg 85%
13:00 +11°C° 0.3 mm 3 mps 756 mmHg 83%
14:00 +10°C° 0.3 mm 2 mps 756 mmHg 86%
15:00 +10°C° 0.3 mm 2 mps 756 mmHg 88%
16:00 +9°C° 0.3 mm 2 mps 756 mmHg 90%
17:00 +10°C° 0.1 mm 1 mps 756 mmHg 92%
18:00 +9°C° 0.1 mm 1 mps 756 mmHg 93%
19:00 +9°C° 0.1 mm 1 mps 757 mmHg 94%
20:00 +8°C° 0 mm 1 mps 757 mmHg 94%
21:00 +8°C° 0 mm 1 mps 757 mmHg 93%
22:00 +8°C° 0 mm 1 mps 757 mmHg 92%
23:00 +8°C° 0 mm 1 mps 757 mmHg 93%
Show more